[[{"header":{"parameterUnit":"m.s-1","parameterCategory":1,"la1":30.2991,"la2":30.254,"lo1":-89.0895,"lo2":-89.0444,"dy":0.0017,"dx":0.0017,"nx":28,"ny":28,"refTime":"2024-05-16T09:00:00:Z","depth":0,"parameterNumber":2,"parameterNumberName":"U-component_of_WINDS"},"data":[0,0,0,0,0,0,0,0,0,0,0,0,0,0,0,0,0,0,0,0,0,0,0,0,0,0,0,0,0,0,0,0,0,0,0,0,0,0,0,0,0,0,0,0,0,0,0,0,0,0,0,0,0,0,0,0,0,0,0.2036,0.2036,0,0.2021,0.2021,0.2021,0.1964,0.1962,0.1961,0.196,0.1946,0.1947,0.1948,0,0,0,0,0,0,0,0,0,0,0,0,0,0.2017,0.2018,0.2036,0.2036,0.2036,0.2021,0.2021,0.2021,0.1964,0.1962,0.1961,0.1959,0.1946,0.1947,0.1948,0,0,0,0,0,0,0,0,0,0,0,0,0,0.2016,0.2018,0.2036,0.2006,0.2003,0.2021,0.2021,0.2021,0.1964,0.1962,0.196,0.1958,0.1946,0.1947,0.1948,0.1995,0,0,0.1952,0.1953,0,0,0,0,0,0,0,0,0.2017,0.2017,0.201,0.2008,0.2005,0.1992,0.2009,0.2012,0.1965,0.1979,0.196,0.1957,0.1963,0.1963,0.1964,0.1995,0.1994,0.1952,0.1953,0.1953,0.1954,0,0,0,0,0,0,0,0.2017,0.2017,0.203,0.201,0.2007,0.1993,0.1991,0.2009,0.1982,0.1978,0.1973,0.1972,0.1961,0.1963,0.1964,0.1994,0.1952,0.1953,0.1954,0.1954,0.2061,0.2063,0,0,0,0,0,0,0.2021,0.2018,0.2031,0.203,0.2006,0.1995,0.1992,0.1998,0.1982,0.1977,0.1974,0.197,0.1962,0.1962,0.1963,0.2016,0.1953,0.1955,0.1955,0.2059,0.2061,0.2064,0,0,0,0,0,0,0.2021,0.2023,0.2031,0.2023,0.2023,0.1997,0.2004,0.1999,0.2001,0.1979,0.1974,0.1981,0.196,0.1961,0.1987,0.2015,0.1955,0.1956,0.2057,0.206,0.2063,0.2125,0,0,0,0,0,0,0.202,0.2023,0.204,0.2023,0.2023,0.2056,0.2006,0.2,0.2003,0.1997,0.1984,0.198,0.1959,0.1986,0.1989,0.2016,0.1957,0.2054,0.2058,0.2062,0.212,0.2129,0.2138,0,0,0,0,0,0.202,0.2059,0.2042,0.2043,0.2045,0.2058,0.2058,0.2032,0.2005,0.2023,0.2009,0.1981,0.2012,0.1989,0.1992,0.202,0.2052,0.2057,0.2061,0.2116,0.2128,0.2137,0,0,0,0,0,0,0.2081,0.2056,0.2037,0.2071,0.2067,0.2048,0.2069,0.2045,0.2048,0.2043,0.2011,0.2008,0.2039,0.2032,0.2007,0.2064,0.2027,0.2033,0.2068,0.2079,0.2087,0.2088,0.1958,0,0,0,0,0,0.2098,0.211,0.2088,0.2121,0.212,0.2095,0.21,0.208,0.2074,0.2072,0.206,0.2056,0.2065,0.2071,0.2078,0.2118,0.2115,0.2139,0.2148,0.2155,0.216,0.2181,0.2191,0.2079,0.2079,0.2079,0,0,0.2135,0.2123,0.2132,0.2133,0.2127,0.2141,0.2094,0.211,0.212,0.2075,0.2098,0.2089,0.2083,0.2116,0.213,0.2111,0.2191,0.2161,0.2167,0.2168,0.2187,0.2197,0.2207,0.2082,0.2081,0.2081,0,0,0.2207,0.22,0.2226,0.222,0.2212,0.2195,0.2201,0.2186,0.2177,0.22,0.2167,0.2178,0.2194,0.219,0.2191,0.2261,0.2235,0.2264,0.231,0.233,0.2339,0.2347,0.2372,0.2381,0.2269,0.2269,0.2269,0,0.2254,0.2272,0.2242,0.226,0.2262,0.222,0.2247,0.2243,0.2238,0.224,0.2218,0.2236,0.2229,0.2261,0.2278,0.2279,0.2286,0.2266,0.234,0.2348,0.2354,0.2378,0.2387,0.2273,0.2272,0.2272,0.2272,0,0.2329,0.2342,0.2364,0.2359,0.2363,0.2385,0.2359,0.2366,0.2346,0.2331,0.2355,0.2345,0.2348,0.2354,0.2335,0.2383,0.2372,0.2346,0.2308,0.2369,0.239,0.2399,0.2278,0.2277,0.2276,0.2275,0,0,0.2441,0.2417,0.2426,0.2423,0.241,0.242,0.244,0.2442,0.2449,0.2447,0.2463,0.2477,0.2452,0.2453,0.2432,0.245,0.2506,0.2422,0.2421,0.2438,0.2558,0.2578,0.2589,0.2489,0.249,0.2492,0.2559,0,0.251,0.2542,0.2515,0.2553,0.2565,0.2525,0.2543,0.2537,0.2524,0.2532,0.2517,0.2528,0.2495,0.2495,0.251,0.2496,0.253,0.2491,0.2504,0.2505,0.2507,0.26,0.2621,0.2684,0.2567,0.2568,0.2569,0,0.2594,0.2594,0.2633,0.2616,0.262,0.2637,0.2636,0.2645,0.2637,0.2626,0.2626,0.2601,0.262,0.2583,0.2608,0.2582,0.2586,0.258,0.2582,0.2582,0.2541,0.2603,0.2704,0.2714,0.2582,0.2581,0.258,0,0.2671,0.2681,0.2705,0.2703,0.2685,0.2697,0.269,0.2681,0.2684,0.2684,0.2685,0.2688,0.269,0.2693,0.2669,0.2644,0.2698,0.2659,0.2689,0.269,0.2703,0.2702,0.2806,0.2705,0.2705,0.2705,0.2705,0,0.2751,0.2776,0.2739,0.2754,0.2781,0.275,0.2778,0.2767,0.2758,0.277,0.2737,0.2749,0.2717,0.2726,0.2708,0.2732,0.2733,0.2725,0.272,0.2728,0.2729,0.273,0.2725,0.2708,0.2707,0.2707,0.2706,0,0.2841,0.2818,0.2841,0.2821,0.2817,0.2838,0.2821,0.2834,0.2818,0.2834,0.2836,0.2812,0.282,0.2797,0.2803,0.279,0.2824,0.2812,0.2827,0.2823,0.2855,0.2853,0.2963,0.2976,0.2868,0.2869,0.287,0,0.2894,0.2912,0.2894,0.2899,0.2893,0.2903,0.2905,0.2876,0.288,0.2872,0.2886,0.2892,0.2895,0.2911,0.2894,0.2898,0.2886,0.2924,0.2886,0.2894,0.2886,0.2885,0.2887,0.2932,0.2934,0.2935,0.2936,0,0.2989,0.2976,0.298,0.2981,0.2985,0.2984,0.2981,0.2987,0.2956,0.2962,0.297,0.2973,0.2978,0.2984,0.2984,0.2977,0.2952,0.2948,0.2955,0.2964,0.2971,0.2967,0.2848,0.2945,0.2944,0.2944,0.2943,0.2943,0.3061,0.3075,0.3064,0.3071,0.3065,0.3063,0.3074,0.3059,0.3065,0.3066,0.3048,0.306,0.3052,0.3049,0.3045,0.3054,0.3036,0.3047,0.305,0.3053,0.3058,0.297,0.3054,0.3054,0.3053,0.3053,0.3053,0,0.3154,0.3145,0.3151,0.3147,0.3152,0.3126,0.3121,0.3127,0.3138,0.3132,0.3135,0.3144,0.315,0.3133,0.3137,0.3147,0.3136,0.3149,0.3148,0.3147,0.3074,0.3067,0.3159,0.3159,0.3159,0.3159,0.3159,0.3159,0.3203,0.3225,0.3211,0.323,0.3221,0.3231,0.3231,0.3228,0.3223,0.3235,0.3239,0.3228,0.3217,0.322,0.3224,0.3219,0.3222,0.324,0.3231,0.3162,0.3152,0.3142,0.3136,0.324,0.3241,0.3303,0.3303,0.3304]},{"header":{"parameterUnit":"m.s-1","parameterCategory":1,"la1":30.2991,"la2":30.254,"lo1":-89.0895,"lo2":-89.0444,"dy":0.0017,"dx":0.0017,"nx":28,"ny":28,"refTime":"2024-05-16T09:00:00:Z","depth":0,"parameterNumber":3,"parameterNumberName":"V-component_of_WINDS"},"data":[0,0,0,0,0,0,0,0,0,0,0,0,0,0,0,0,0,0,0,0,0,0,0,0,0,0,0,0,0,0,0,0,0,0,0,0,0,0,0,0,0,0,0,0,0,0,0,0,0,0,0,0,0,0,0,0,0,0,6.1975,6.1976,0,6.2037,6.2038,6.2039,6.199,6.1987,6.1985,6.1983,6.2042,6.2045,6.2049,0,0,0,0,0,0,0,0,0,0,0,0,0,6.1808,6.1811,6.1975,6.1976,6.1977,6.2037,6.2038,6.2039,6.199,6.1987,6.1985,6.1982,6.2041,6.2045,6.2049,0,0,0,0,0,0,0,0,0,0,0,0,0,6.1876,6.1812,6.1975,6.196,6.1959,6.2037,6.2038,6.2039,6.199,6.1987,6.1984,6.1981,6.2039,6.2044,6.205,6.2144,0,0,6.2066,6.2068,0,0,0,0,0,0,0,0,6.1872,6.1882,6.1961,6.1961,6.196,6.2003,6.2,6.2074,6.1991,6.1978,6.1983,6.198,6.2031,6.2037,6.2055,6.2147,6.215,6.2066,6.2069,6.2072,6.2073,0,0,0,0,0,0,0,6.1867,6.1879,6.1999,6.1962,6.1962,6.1947,6.1954,6.2014,6.2021,6.1979,6.1976,6.1984,6.203,6.205,6.2056,6.2151,6.2066,6.2071,6.2074,6.2076,6.2322,6.2325,0,0,0,0,0,0,6.1865,6.1876,6.1997,6.2001,6.1908,6.1953,6.196,6.1992,6.202,6.2022,6.1987,6.1982,6.2043,6.205,6.2058,6.217,6.2072,6.2076,6.2079,6.2318,6.2322,6.2326,0,0,0,0,0,0,6.1862,6.1876,6.1995,6.1938,6.1952,6.1959,6.1995,6.1995,6.2015,6.2026,6.2027,6.2006,6.2041,6.2051,6.2123,6.2171,6.2079,6.2084,6.2314,6.2319,6.2324,6.2395,0,0,0,0,0,0,6.1857,6.1876,6.1913,6.1939,6.1955,6.2061,6.1998,6.1998,6.2025,6.2019,6.2045,6.2046,6.2039,6.2116,6.2129,6.2177,6.2088,6.231,6.2317,6.2323,6.2389,6.2402,6.2414,0,0,0,0,0,6.1851,6.193,6.1915,6.193,6.2002,6.2064,6.2073,6.2065,6.2029,6.2066,6.2073,6.2045,6.2164,6.2124,6.2138,6.2188,6.2307,6.2315,6.2322,6.2383,6.2399,6.2413,0,0,0,0,0,0,6.1908,6.1933,6.1917,6.2007,6.2034,6.2056,6.2102,6.2083,6.2119,6.2112,6.2098,6.2104,6.2181,6.2192,6.2146,6.228,6.2229,6.224,6.2271,6.2287,6.2299,6.2294,6.2092,0,0,0,0,0,6.1931,6.1981,6.1999,6.2077,6.2091,6.2095,6.2121,6.2113,6.2139,6.215,6.2162,6.2188,6.223,6.2259,6.2299,6.239,6.2394,6.2431,6.2444,6.2454,6.2463,6.251,6.2527,6.2351,6.2351,6.2351,0,0,6.1979,6.1999,6.2031,6.2089,6.2109,6.2159,6.2105,6.216,6.2196,6.2158,6.2228,6.2237,6.2265,6.2347,6.2383,6.2358,6.2513,6.2464,6.2472,6.2475,6.252,6.2536,6.2551,6.2356,6.2355,6.2354,0,0,6.2092,6.2113,6.2179,6.22,6.2232,6.2233,6.2249,6.2274,6.228,6.235,6.2321,6.2363,6.2438,6.2458,6.2478,6.2598,6.2574,6.2611,6.2676,6.2723,6.2736,6.2749,6.279,6.2806,6.2621,6.2621,6.2621,0,6.2147,6.2224,6.2215,6.2273,6.2298,6.2267,6.2332,6.2353,6.2395,6.2412,6.2384,6.2476,6.2492,6.2578,6.2607,6.2625,6.2641,6.2608,6.2736,6.2748,6.2759,6.2798,6.2814,6.2625,6.2625,6.2624,6.2624,0,6.2289,6.2342,6.2392,6.2435,6.2466,6.2527,6.2526,6.2557,6.2546,6.255,6.262,6.2639,6.2681,6.2701,6.269,6.2785,6.2768,6.2738,6.2686,6.278,6.2817,6.2832,6.2631,6.263,6.2628,6.2627,0,0,6.244,6.2478,6.2496,6.2515,6.2547,6.2586,6.2645,6.2689,6.2716,6.2745,6.2793,6.2857,6.2829,6.2852,6.2842,6.2883,6.2975,6.2847,6.2848,6.287,6.3079,6.3101,6.3119,6.2959,6.2962,6.2964,6.3077,0,6.2554,6.2659,6.2652,6.275,6.2798,6.2768,6.2819,6.2843,6.2848,6.2888,6.2892,6.2937,6.2898,6.2911,6.295,6.2956,6.3017,6.2947,6.3002,6.3004,6.2996,6.3139,6.3162,6.3268,6.3091,6.3093,6.3095,0,6.2701,6.2738,6.2841,6.2865,6.2884,6.2931,6.2969,6.3008,6.3034,6.3034,6.306,6.3043,6.31,6.3048,6.3125,6.3078,6.31,6.3106,6.3109,6.3114,6.3055,6.3146,6.3301,6.3317,6.3118,6.3116,6.3114,0,6.28,6.2875,6.2946,6.2963,6.2993,6.3025,6.3039,6.3062,6.3088,6.3121,6.3137,6.3176,6.3197,6.3226,6.322,6.3182,6.3298,6.3245,6.3299,6.3299,6.3324,6.3323,6.3485,6.3339,6.3339,6.3339,6.3339,0,6.2928,6.2992,6.299,6.3034,6.3104,6.3095,6.3163,6.3173,6.3193,6.3236,6.3212,6.3253,6.3242,6.3282,6.3277,6.3341,6.3351,6.3351,6.3349,6.3353,6.3353,6.3367,6.3359,6.3343,6.3342,6.3341,6.3341,0,6.305,6.3052,6.3127,6.315,6.3157,6.3207,6.3225,6.3265,6.3268,6.3323,6.3335,6.3338,6.3384,6.338,6.3431,6.3427,6.3507,6.3496,6.3499,6.3496,6.355,6.3544,6.3726,6.3748,6.3589,6.359,6.3592,0,6.3131,6.318,6.3208,6.3236,6.3252,6.3298,6.3325,6.3316,6.3345,6.3377,6.3413,6.3456,6.3491,6.3564,6.357,6.3608,6.3598,6.3659,6.3603,6.3606,6.3598,6.3595,6.3599,6.3669,6.3671,6.3673,6.3674,0,6.3275,6.3274,6.3314,6.3355,6.3388,6.342,6.3448,6.3472,6.3466,6.3499,6.3546,6.3573,6.3625,6.3668,6.3704,6.3715,6.3693,6.3691,6.3705,6.371,6.371,6.371,6.3528,6.3687,6.3686,6.3685,6.3684,6.3684,6.3379,6.3421,6.3447,6.3492,6.3513,6.354,6.3579,6.3586,6.3626,6.3669,6.3661,6.3713,6.3736,6.3782,6.3797,6.3837,6.3814,6.3835,6.384,6.3846,6.3852,6.3704,6.3843,6.3843,6.3842,6.3842,6.3842,0,6.3521,6.3536,6.3578,6.362,6.3655,6.3633,6.3663,6.3693,6.374,6.3764,6.3798,6.3851,6.3893,6.3902,6.3941,6.397,6.3961,6.3981,6.3978,6.3981,6.387,6.3853,6.3987,6.3987,6.3987,6.3987,6.3987,6.3987,6.3599,6.3668,6.3669,6.3747,6.3761,6.3814,6.3833,6.3857,6.3875,6.3936,6.3971,6.3977,6.3994,6.4034,6.407,6.4072,6.4087,6.411,6.4108,6.4003,6.3989,6.3975,6.3959,6.4114,6.4114,6.4215,6.4216,6.4217]}]]